Time,TemperatureF,DewpointF,PressureIn,WindDirection,WindDirectionDegrees,WindSpeedMPH,WindSpeedGustMPH,Humidity,HourlyPrecipIn,Conditions,Clouds,dailyrainin,SoftwareType,DateUTC
2013-01-26 00:02:00,30.0,25.0,30.20,North,0,0.0,-999.0,80,-99.99,,,-99.99,,2013-01-26 06:02:00,
2013-01-26 00:12:00,30.0,25.0,30.20,North,0,0.0,-999.0,80,-99.99,,,-99.99,,2013-01-26 06:12:00,
2013-01-26 00:21:00,34.0,27.0,30.20,North,0,0.0,-999.0,74,-99.99,,,-99.99,,2013-01-26 06:21:00,
2013-01-26 00:31:00,32.0,27.0,30.19,ESE,120,5.0,-999.0,80,-99.99,,,-99.99,,2013-01-26 06:31:00,
2013-01-26 00:41:00,34.0,27.0,30.19,SE,130,6.0,-999.0,74,-99.99,,,-99.99,,2013-01-26 06:41:00,
2013-01-26 00:51:00,34.0,27.0,30.19,SE,140,5.0,-999.0,74,-99.99,,,-99.99,,2013-01-26 06:51:00,
2013-01-26 01:02:00,34.0,27.0,30.19,SE,140,5.0,-999.0,74,-99.99,,,-99.99,,2013-01-26 07:02:00,
2013-01-26 01:12:00,34.0,27.0,30.19,SE,140,3.0,-999.0,74,-99.99,,,-99.99,,2013-01-26 07:12:00,
2013-01-26 01:21:00,36.0,27.0,30.19,SE,130,3.0,-999.0,69,-99.99,,,-99.99,,2013-01-26 07:21:00,
2013-01-26 01:33:00,36.0,27.0,30.18,SE,130,6.0,-999.0,69,-99.99,,,-99.99,,2013-01-26 07:33:00,
2013-01-26 01:41:00,36.0,27.0,30.18,SE,130,6.0,-999.0,69,-99.99,,,-99.99,,2013-01-26 07:41:00,
2013-01-26 01:51:00,36.0,27.0,30.18,SE,140,5.0,-999.0,69,-99.99,,,-99.99,,2013-01-26 07:51:00,
2013-01-26 02:02:00,36.0,27.0,30.18,SE,140,5.0,-999.0,69,-99.99,,,-99.99,,2013-01-26 08:02:00,
2013-01-26 02:11:00,36.0,27.0,30.18,SE,130,5.0,-999.0,69,-99.99,,,-99.99,,2013-01-26 08:11:00,
2013-01-26 02:21:00,36.0,27.0,30.18,North,0,0.0,-999.0,69,-99.99,,,-99.99,,2013-01-26 08:21:00,
2013-01-26 02:32:00,36.0,27.0,30.18,North,0,0.0,-999.0,69,-99.99,,,-99.99,,2013-01-26 08:32:00,
2013-01-26 02:42:00,36.0,27.0,30.18,North,0,0.0,-999.0,69,-99.99,,,-99.99,,2013-01-26 08:42:00,
2013-01-26 02:53:00,36.0,27.0,30.18,ESE,120,3.0,-999.0,69,-99.99,,,-99.99,,2013-01-26 08:53:00,
2013-01-26 03:02:00,36.0,27.0,30.18,ESE,120,3.0,-999.0,69,-99.99,,,-99.99,,2013-01-26 09:02:00,
2013-01-26 03:11:00,36.0,27.0,30.18,SE,130,5.0,-999.0,69,-99.99,,,-99.99,,2013-01-26 09:11:00,
2013-01-26 03:22:00,34.0,27.0,30.17,ESE,120,5.0,-999.0,74,-99.99,,,-99.99,,2013-01-26 09:22:00,
2013-01-26 03:31:00,36.0,27.0,30.17,ESE,120,5.0,-999.0,69,-99.99,,,-99.99,,2013-01-26 09:31:00,
2013-01-26 03:42:00,36.0,27.0,30.17,ESE,120,6.0,-999.0,69,-99.99,,,-99.99,,2013-01-26 09:42:00,
2013-01-26 03:51:00,34.0,27.0,30.17,ESE,120,6.0,-999.0,74,-99.99,,,-99.99,,2013-01-26 09:51:00,
2013-01-26 04:01:00,34.0,27.0,30.17,ESE,120,6.0,-999.0,74,-99.99,,,-99.99,,2013-01-26 10:01:00,
2013-01-26 04:11:00,34.0,27.0,30.16,ESE,120,5.0,-999.0,74,-99.99,,,-99.99,,2013-01-26 10:11:00,
2013-01-26 04:21:00,34.0,27.0,30.16,SE,130,3.0,-999.0,74,-99.99,,,-99.99,,2013-01-26 10:21:00,
2013-01-26 04:31:00,34.0,27.0,30.16,North,0,0.0,-999.0,74,-99.99,,,-99.99,,2013-01-26 10:31:00,
2013-01-26 04:42:00,34.0,27.0,30.15,North,0,0.0,-999.0,74,-99.99,,,-99.99,,2013-01-26 10:42:00,
2013-01-26 04:52:00,34.0,27.0,30.15,SE,130,3.0,-999.0,74,-99.99,,,-99.99,,2013-01-26 10:52:00,
2013-01-26 05:01:00,34.0,27.0,30.15,SE,130,3.0,-999.0,74,-99.99,,,-99.99,,2013-01-26 11:01:00,
2013-01-26 05:12:00,34.0,27.0,30.15,ESE,120,6.0,-999.0,74,-99.99,,,-99.99,,2013-01-26 11:12:00,
2013-01-26 05:22:00,36.0,27.0,30.15,East,100,3.0,-999.0,69,-99.99,,,-99.99,,2013-01-26 11:22:00,
2013-01-26 05:32:00,34.0,27.0,30.15,East,80,5.0,-999.0,74,-99.99,,,-99.99,,2013-01-26 11:32:00,
2013-01-26 05:42:00,34.0,27.0,30.15,East,80,5.0,-999.0,74,-99.99,,,-99.99,,2013-01-26 11:42:00,
2013-01-26 05:52:00,34.0,27.0,30.14,East,90,3.0,-999.0,74,-99.99,,,-99.99,,2013-01-26 11:52:00,
2013-01-26 06:02:00,34.0,27.0,30.14,East,90,3.0,-999.0,74,-99.99,,,-99.99,,2013-01-26 12:02:00,
2013-01-26 06:12:00,32.0,27.0,30.15,ESE,110,3.0,-999.0,80,-99.99,,,-99.99,,2013-01-26 12:12:00,
2013-01-26 06:22:00,34.0,27.0,30.15,North,0,0.0,-999.0,74,-99.99,,,-99.99,,2013-01-26 12:22:00,
2013-01-26 06:33:00,32.0,27.0,30.15,North,0,0.0,-999.0,80,-99.99,,,-99.99,,2013-01-26 12:33:00,
2013-01-26 06:42:00,32.0,27.0,30.15,North,0,0.0,-999.0,80,-99.99,,,-99.99,,2013-01-26 12:42:00,
2013-01-26 06:52:00,32.0,27.0,30.15,ESE,110,3.0,-999.0,80,-99.99,,,-99.99,,2013-01-26 12:52:00,
2013-01-26 07:03:00,32.0,27.0,30.15,ESE,110,3.0,-999.0,80,-99.99,,,-99.99,,2013-01-26 13:03:00,
2013-01-26 07:12:00,32.0,27.0,30.15,ESE,110,8.0,-999.0,80,-99.99,,,-99.99,,2013-01-26 13:12:00,
2013-01-26 07:22:00,34.0,27.0,30.14,ESE,110,8.0,-999.0,74,-99.99,,,-99.99,,2013-01-26 13:22:00,
2013-01-26 07:32:00,32.0,27.0,30.15,ESE,110,8.0,-999.0,80,-99.99,,,-99.99,,2013-01-26 13:32:00,
2013-01-26 07:42:00,32.0,27.0,30.15,ESE,120,8.0,-999.0,80,-99.99,,,-99.99,,2013-01-26 13:42:00,
2013-01-26 07:52:00,32.0,27.0,30.15,ESE,120,8.0,-999.0,80,-99.99,,,-99.99,,2013-01-26 13:52:00,
2013-01-26 08:03:00,32.0,27.0,30.15,ESE,120,8.0,-999.0,80,-99.99,,,-99.99,,2013-01-26 14:03:00,
2013-01-26 08:11:00,30.0,25.0,30.15,SE,130,6.0,-999.0,80,-99.99,,,-99.99,,2013-01-26 14:11:00,
2013-01-26 08:21:00,30.0,27.0,30.16,SE,130,6.0,-999.0,86,-99.99,,,-99.99,,2013-01-26 14:21:00,
2013-01-26 08:32:00,32.0,27.0,30.16,SE,130,7.0,-999.0,80,-99.99,,,-99.99,,2013-01-26 14:32:00,
2013-01-26 08:43:00,34.0,27.0,30.16,SE,130,7.0,-999.0,74,-99.99,,,-99.99,,2013-01-26 14:43:00,
2013-01-26 08:52:00,36.0,27.0,30.17,SE,130,8.0,-999.0,69,-99.99,,,-99.99,,2013-01-26 14:52:00,
2013-01-26 09:03:00,36.0,27.0,30.17,SE,130,8.0,-999.0,69,-99.99,,,-99.99,,2013-01-26 15:03:00,
2013-01-26 09:12:00,36.0,27.0,30.17,SE,140,8.0,-999.0,69,-99.99,,,-99.99,,2013-01-26 15:12:00,
2013-01-26 09:22:00,37.0,27.0,30.17,SE,130,7.0,-999.0,64,-99.99,,,-99.99,,2013-01-26 15:22:00,
2013-01-26 09:32:00,37.0,27.0,30.17,SE,130,8.0,-999.0,64,-99.99,,,-99.99,,2013-01-26 15:32:00,
2013-01-26 09:43:00,37.0,28.0,30.17,SE,140,7.0,-999.0,69,-99.99,,,-99.99,,2013-01-26 15:43:00,
2013-01-26 09:52:00,39.0,28.0,30.17,SE,140,7.0,-999.0,64,-99.99,,,-99.99,,2013-01-26 15:52:00,
2013-01-26 10:02:00,39.0,28.0,30.17,SE,140,7.0,-999.0,64,-99.99,,,-99.99,,2013-01-26 16:02:00,
2013-01-26 10:12:00,43.0,28.0,30.16,SSE,150,9.0,-999.0,56,-99.99,,,-99.99,,2013-01-26 16:12:00,
2013-01-26 10:22:00,45.0,27.0,30.16,SSE,150,13.0,-999.0,48,-99.99,,,-99.99,,2013-01-26 16:22:00,
2013-01-26 10:32:00,45.0,27.0,30.16,SSE,160,13.0,-999.0,48,-99.99,,,-99.99,,2013-01-26 16:32:00,
2013-01-26 10:42:00,46.0,27.0,30.16,SSE,160,10.0,-999.0,45,-99.99,,,-99.99,,2013-01-26 16:42:00,
2013-01-26 10:53:00,46.0,27.0,30.15,South,170,13.0,-999.0,45,-99.99,,,-99.99,,2013-01-26 16:53:00,
2013-01-26 11:03:00,46.0,27.0,30.15,South,170,13.0,-999.0,45,-99.99,,,-99.99,,2013-01-26 17:03:00,
2013-01-26 11:12:00,48.0,25.0,30.15,SSE,150,16.0,22.0,39,-99.99,,,-99.99,,2013-01-26 17:12:00,
2013-01-26 11:22:00,48.0,25.0,30.15,SSE,160,16.0,23.0,39,-99.99,,,-99.99,,2013-01-26 17:22:00,
2013-01-26 11:32:00,48.0,27.0,30.14,South,170,10.0,14.0,42,-99.99,,,-99.99,,2013-01-26 17:32:00,
2013-01-26 11:42:00,50.0,27.0,30.14,South,170,12.0,17.0,39,-99.99,,,-99.99,,2013-01-26 17:42:00,
2013-01-26 11:52:00,52.0,25.0,30.13,SSE,160,15.0,22.0,34,-99.99,,,-99.99,,2013-01-26 17:52:00,
2013-01-26 12:02:00,52.0,25.0,30.13,SSE,160,15.0,22.0,34,-99.99,,,-99.99,,2013-01-26 18:02:00,
2013-01-26 12:12:00,52.0,25.0,30.13,South,170,14.0,22.0,34,-99.99,,,-99.99,,2013-01-26 18:12:00,
2013-01-26 12:22:00,54.0,25.0,30.12,SSE,160,16.0,24.0,32,-99.99,,,-99.99,,2013-01-26 18:22:00,
2013-01-26 12:32:00,54.0,25.0,30.11,SSE,160,16.0,-999.0,32,-99.99,,,-99.99,,2013-01-26 18:32:00,
2013-01-26 12:42:00,55.0,25.0,30.10,SSE,160,20.0,24.0,30,-99.99,,,-99.99,,2013-01-26 18:42:00,
2013-01-26 12:52:00,55.0,25.0,30.09,SSE,160,20.0,25.0,30,-99.99,,,-99.99,,2013-01-26 18:52:00,
2013-01-26 13:03:00,55.0,25.0,30.09,SSE,160,20.0,25.0,30,-99.99,,,-99.99,,2013-01-26 19:03:00,
2013-01-26 13:12:00,57.0,25.0,30.08,South,170,22.0,27.0,28,-99.99,,,-99.99,,2013-01-26 19:12:00,
2013-01-26 13:22:00,57.0,25.0,30.06,South,170,21.0,30.0,28,-99.99,,,-99.99,,2013-01-26 19:22:00,
2013-01-26 13:32:00,57.0,25.0,30.06,South,170,22.0,-999.0,28,-99.99,,,-99.99,,2013-01-26 19:32:00,
2013-01-26 13:42:00,57.0,25.0,30.06,South,170,20.0,-999.0,28,-99.99,,,-99.99,,2013-01-26 19:42:00,
2013-01-26 13:52:00,57.0,25.0,30.05,South,170,20.0,25.0,28,-99.99,,,-99.99,,2013-01-26 19:52:00,
2013-01-26 14:02:00,57.0,25.0,30.05,South,170,20.0,25.0,28,-99.99,,,-99.99,,2013-01-26 20:02:00,
2013-01-26 14:11:00,59.0,25.0,30.04,South,170,20.0,24.0,26,-99.99,,,-99.99,,2013-01-26 20:11:00,
2013-01-26 14:21:00,59.0,25.0,30.03,SSE,160,17.0,21.0,26,-99.99,,,-99.99,,2013-01-26 20:21:00,
2013-01-26 14:32:00,59.0,25.0,30.03,SSE,160,16.0,25.0,26,-99.99,,,-99.99,,2013-01-26 20:32:00,
2013-01-26 14:42:00,59.0,25.0,30.03,SSE,160,18.0,25.0,26,-99.99,,,-99.99,,2013-01-26 20:42:00,
2013-01-26 14:52:00,59.0,23.0,30.03,South,170,20.0,23.0,24,-99.99,,,-99.99,,2013-01-26 20:52:00,
2013-01-26 15:02:00,59.0,23.0,30.03,South,170,20.0,23.0,24,-99.99,,,-99.99,,2013-01-26 21:02:00,
2013-01-26 15:12:00,61.0,21.0,30.02,SSE,160,16.0,22.0,21,-99.99,,,-99.99,,2013-01-26 21:12:00,
2013-01-26 15:22:00,61.0,21.0,30.02,SSE,160,14.0,23.0,21,-99.99,,,-99.99,,2013-01-26 21:22:00,
2013-01-26 15:32:00,59.0,21.0,30.01,SSE,150,16.0,21.0,22,-99.99,,,-99.99,,2013-01-26 21:32:00,
2013-01-26 15:42:00,59.0,21.0,30.01,SSE,150,18.0,24.0,22,-99.99,,,-99.99,,2013-01-26 21:42:00,
2013-01-26 15:51:00,59.0,21.0,30.01,SSE,160,12.0,18.0,22,-99.99,,,-99.99,,2013-01-26 21:51:00,
2013-01-26 16:01:00,59.0,21.0,30.01,SSE,160,12.0,18.0,22,-99.99,,,-99.99,,2013-01-26 22:01:00,
2013-01-26 16:11:00,57.0,21.0,30.01,SSE,150,15.0,20.0,24,-99.99,,,-99.99,,2013-01-26 22:11:00,
2013-01-26 16:21:00,55.0,25.0,30.01,SSE,150,14.0,-999.0,30,-99.99,,,-99.99,,2013-01-26 22:21:00,
2013-01-26 16:31:00,55.0,25.0,30.01,SSE,150,12.0,-999.0,30,-99.99,,,-99.99,,2013-01-26 22:31:00,
2013-01-26 16:42:00,55.0,25.0,30.00,SE,140,12.0,17.0,30,-99.99,,,-99.99,,2013-01-26 22:42:00,
2013-01-26 16:51:00,54.0,25.0,30.00,SE,140,9.0,-999.0,32,-99.99,,,-99.99,,2013-01-26 22:51:00,
2013-01-26 17:01:00,54.0,25.0,30.00,SE,140,9.0,-999.0,32,-99.99,,,-99.99,,2013-01-26 23:01:00,
2013-01-26 17:11:00,54.0,25.0,29.99,SE,130,9.0,-999.0,32,-99.99,,,-99.99,,2013-01-26 23:11:00,
2013-01-26 17:22:00,54.0,25.0,29.99,SE,130,10.0,-999.0,32,-99.99,,,-99.99,,2013-01-26 23:22:00,
2013-01-26 17:32:00,54.0,25.0,29.98,SE,140,9.0,-999.0,32,-99.99,,,-99.99,,2013-01-26 23:32:00,
2013-01-26 17:41:00,54.0,25.0,29.99,SE,140,9.0,-999.0,32,-99.99,,,-99.99,,2013-01-26 23:41:00,
2013-01-26 17:52:00,52.0,27.0,29.99,SSE,150,9.0,-999.0,37,-99.99,,,-99.99,,2013-01-26 23:52:00,
2013-01-26 18:02:00,52.0,27.0,29.99,SSE,150,9.0,-999.0,37,-99.99,,,-99.99,,2013-01-27 00:02:00,
2013-01-26 18:11:00,52.0,27.0,29.99,SSE,150,9.0,-999.0,37,-99.99,,,-99.99,,2013-01-27 00:11:00,
2013-01-26 18:21:00,52.0,28.0,29.99,SSE,150,10.0,-999.0,40,-99.99,,,-99.99,,2013-01-27 00:21:00,
2013-01-26 18:32:00,52.0,28.0,29.99,SSE,150,9.0,-999.0,40,-99.99,,,-99.99,,2013-01-27 00:32:00,
2013-01-26 18:41:00,52.0,28.0,29.99,SSE,150,9.0,-999.0,40,-99.99,,,-99.99,,2013-01-27 00:41:00,
2013-01-26 18:51:00,52.0,30.0,29.99,SSE,150,9.0,-999.0,43,-99.99,,,-99.99,,2013-01-27 00:51:00,
2013-01-26 19:01:00,52.0,30.0,29.99,SSE,150,9.0,-999.0,43,-99.99,,,-99.99,,2013-01-27 01:01:00,
2013-01-26 19:11:00,50.0,30.0,29.98,SE,140,7.0,-999.0,46,-99.99,,,-99.99,,2013-01-27 01:11:00,
2013-01-26 19:22:00,50.0,32.0,29.98,SSE,150,12.0,-999.0,49,-99.99,,,-99.99,,2013-01-27 01:22:00,
2013-01-26 19:32:00,50.0,36.0,29.98,SSE,160,17.0,22.0,57,-99.99,,,-99.99,,2013-01-27 01:32:00,
2013-01-26 19:41:00,50.0,37.0,29.98,SSE,160,16.0,22.0,61,-99.99,,,-99.99,,2013-01-27 01:41:00,
2013-01-26 19:52:00,50.0,39.0,29.98,SSE,150,14.0,-999.0,66,-99.99,,,-99.99,,2013-01-27 01:52:00,
2013-01-26 20:01:00,50.0,39.0,29.98,SSE,150,14.0,-999.0,66,-99.99,,,-99.99,,2013-01-27 02:01:00,
2013-01-26 20:11:00,50.0,39.0,29.97,SSE,160,14.0,-999.0,66,-99.99,,,-99.99,,2013-01-27 02:11:00,
2013-01-26 20:21:00,48.0,39.0,29.97,SSE,160,10.0,-999.0,70,-99.99,,,-99.99,,2013-01-27 02:21:00,
2013-01-26 20:31:00,48.0,39.0,29.98,SSE,160,10.0,-999.0,70,-99.99,,,-99.99,,2013-01-27 02:31:00,
2013-01-26 20:41:00,48.0,39.0,29.98,South,180,8.0,-999.0,70,-99.99,,,-99.99,,2013-01-27 02:41:00,
2013-01-26 20:52:00,48.0,39.0,29.98,South,170,9.0,-999.0,70,-99.99,,,-99.99,,2013-01-27 02:52:00,
2013-01-26 21:02:00,48.0,39.0,29.98,South,170,9.0,-999.0,70,-99.99,,,-99.99,,2013-01-27 03:02:00,
2013-01-26 21:11:00,48.0,39.0,29.98,SSE,160,9.0,-999.0,70,-99.99,,,-99.99,,2013-01-27 03:11:00,
2013-01-26 21:21:00,48.0,39.0,29.97,SSE,160,16.0,-999.0,70,-99.99,,,-99.99,,2013-01-27 03:21:00,
2013-01-26 21:31:00,48.0,39.0,29.97,SSE,160,15.0,20.0,70,-99.99,,,-99.99,,2013-01-27 03:31:00,
2013-01-26 21:42:00,48.0,39.0,29.97,SSE,160,13.0,20.0,70,-99.99,,,-99.99,,2013-01-27 03:42:00,
2013-01-26 21:51:00,48.0,39.0,29.96,SSE,160,12.0,17.0,70,-99.99,,,-99.99,,2013-01-27 03:51:00,
2013-01-26 22:01:00,48.0,39.0,29.96,SSE,160,12.0,17.0,70,-99.99,,,-99.99,,2013-01-27 04:01:00,
2013-01-26 22:11:00,46.0,39.0,29.96,SSE,160,12.0,-999.0,75,-99.99,,,-99.99,,2013-01-27 04:11:00,
2013-01-26 22:21:00,46.0,39.0,29.95,SSE,150,13.0,-999.0,75,-99.99,,,-99.99,,2013-01-27 04:21:00,
2013-01-26 22:32:00,46.0,39.0,29.96,SSE,160,12.0,-999.0,75,-99.99,,,-99.99,,2013-01-27 04:32:00,
2013-01-26 22:41:00,46.0,41.0,29.96,SSE,150,10.0,-999.0,81,-99.99,,,-99.99,,2013-01-27 04:41:00,
2013-01-26 22:51:00,45.0,41.0,29.94,SE,140,6.0,-999.0,87,-99.99,,,-99.99,,2013-01-27 04:51:00,
2013-01-26 23:03:00,45.0,41.0,29.94,SE,140,6.0,-999.0,87,-99.99,,,-99.99,,2013-01-27 05:03:00,
2013-01-26 23:12:00,45.0,41.0,29.94,SE,130,9.0,-999.0,87,-99.99,,,-99.99,,2013-01-27 05:12:00,
2013-01-26 23:22:00,45.0,43.0,29.94,SSE,150,12.0,-999.0,93,-99.99,,,-99.99,,2013-01-27 05:22:00,
2013-01-26 23:32:00,45.0,43.0,29.94,SSE,150,10.0,-999.0,93,-99.99,,,-99.99,,2013-01-27 05:32:00,
2013-01-26 23:41:00,45.0,43.0,29.93,SSE,150,13.0,-999.0,93,-99.99,,,-99.99,,2013-01-27 05:41:00,
2013-01-26 23:52:00,45.0,43.0,29.94,SSE,150,12.0,-999.0,93,-99.99,,,-99.99,,2013-01-27 05:52:00,